Location: Krasnoyarskiy Pitomnik
(51.1333°N, 71.6167°E)
Time: 23:03:28
(UTC+00:00)

NOSS 2-2 (C) - Pass Details

Date: 03 June 2022
Orbit: 439 x 1763 km, 63.3° (Epoch: 02 June)

Event Time Altitude Azimuth Distance (km) Brightness Sun altitude
Rises 18:13:07 0° 311° (NW) 2,980 8.0 -15.4°
Reaches altitude 10° 18:15:12 10° 305° (NW) 2,210 7.1 -15.4°
Maximum altitude 18:20:01 45° 233° (SW) 1,197 4.8 -15.6°
Enters shadow 18:23:47 23° 174° (S) 2,051 5.6 -15.7°
